Regional Weather Roundup
Issued by NWS

Home | Current Version | Previous Version | Text Only | Print | Product List | Glossary Off
Versions: 1 2 3 4 5 6 7 8 9 10 11 12 13 14 15 16 17 18 19 20 21 22 23 24 25 26 27 28 29 30 31 32 33 34 35 36 37 38 39 40 41 42 43 44 45 46 47 48 49 50

680
ASUS45 KCYS 261010
RWRWY

WYOMING REGIONAL WEATHER ROUNDUP
NATIONAL WEATHER SERVICE CHEYENNE WY
400 AM MDT WED APR 26 2017

NOTE:  "FAIR" INDICATES FEW OR NO CLOUDS BELOW 12,000 FEET
WITH NO SIGNIFICANT WEATHER AND/OR OBSTRUCTIONS TO VISIBILITY.

WYZ001-261100-
YELLOWSTONE NATIONAL PARK

CITY           SKY/WX    TMP DP  RH WIND       PRES   REMARKS
LK YELLOWSTONE   N/A     28  26  92 CALM      29.82F
W YELLOWSTONE  NOT AVBL

$$
WYZ002>013-054>058-071-098>099-261100-
NORTHERN WYOMING

CITY           SKY/WX    TMP DP  RH WIND       PRES   REMARKS
JACKSON        CLOUDY    34  28  80 S14       29.83F WCI  24
CODY           FAIR      31  30  96 NW3       29.80S
GREYBULL       FAIR      33  29  85 SE5       29.80F WCI  29
WORLAND        FAIR      30  30 100 E3        29.80F
SHERIDAN       CLOUDY    31  27  85 SE6       29.81F WCI  25
BUFFALO        NOT AVBL
GILLETTE       CLOUDY    28  27  96 S7        29.83F WCI  21
HULETT         CLOUDY    27  23  86 SW3       29.85F
NEWCASTLE      PTSUNNY   23  23 100 N12       29.85F WCI  12

$$
WYZ014>020-022>026-101>103-261100-
CENTRAL WYOMING

CITY           SKY/WX    TMP DP  RH WIND       PRES   REMARKS
BIG PINEY      FAIR      31  26  82 CALM      29.87F
PINEDALE       FAIR      30  28  93 N5        29.88S WCI  25
DUBOIS         FAIR      28  27  93 NW8       29.82S WCI  20
LANDER         FAIR      31  25  78 NW5       29.81F WCI  26
RIVERTON       FOG       28  28 100 NW5       29.82S VSB 3/4 WCI  23
CASPER         FAIR      30  27  88 SW13      29.81F WCI  20
DOUGLAS        FAIR      24  22  91 W5        29.83F WCI  18

$$
WYZ021-027>030-104>119-261100-
SOUTHERN WYOMING

CITY           SKY/WX    TMP DP  RH WIND       PRES   REMARKS
EVANSTON       MOCLDY    31  29  92 SW10      29.90F WCI  22
KEMMERER         N/A     30  28  93 CALM      29.89F
FORT BRIDGER   FAIR      33  29  83 SW10      29.92F WCI  25
ROCK SPRINGS   MOCLDY    33  30  88 SW12      29.88S WCI  24
DIXON            N/A     30  29  94 NE5       29.93S WCI  25
RAWLINS        FAIR      28  25  88 SW8       29.86F WCI  20
SARATOGA       FAIR      25  25 100 CALM      29.88S
LARAMIE        FAIR      25  22  88 N5        29.82S WCI  19
CHEYENNE       CLOUDY    32  23  69 NW14      29.80R WCI  22
TORRINGTON     FAIR      32  26  78 NW7       29.82S WCI  26
PINE BLUFFS    CLOUDY    32  28  86 NW14      29.82R WCI  22

$$




USA.gov is the U.S. government's official web portal to all federal, state and local government web resources and services.